Погода в Марилии

Бразилия     22°13′00″S   49°56′48″W
темп.,
°C
ветер,
м/с
пор.,
м/с
влажн.,
%
обл.,
%
осадки,
мм/ч
давл.,
гПа
погр.,
м
27 февраля, сб
сб2700:00+19вюв399512 3.0 1013349
03:00+18вюв29976 3.1 1012341
06:00+18вюв27982 0.0 1012244
09:00+22в25868 0.0 1014429
12:00+26всв22778 1.6 1013859
15:00+28юв116314 2.9 10101200
18:00+25вюв248218 0.7 1009139
21:00+21юв389310 5.9 1011205
28 февраля, вс
вс2800:00+20вюв4109518 0.5 1012375
03:00+19в310979 0.5 1011376
06:00+19в39978 0.0 1012341
09:00+23св59795 0.0 1013818
12:00+27ссв586410 0.1 10121398
15:00+28св46605 0.4 10091517
18:00+25всв36800 0.7 1008259
21:00+21в288835 2.8 1010206
1 марта, пн
пн100:00+20всв398992 0.0 1011271
03:00+19всв269191 0.0 1010161
06:00+19св239347 0.0 1012115
09:00+23ссв488156 0.0 1013643
12:00+27ссв586235 0.4 10121353
15:00+26с367918 3.9 1009889
18:00+24ссв238844 3.8 1008143
21:00+21всв129371 4.6 101125
2 марта, вт
вт200:00+21всв1292100 0.0 101229
03:00+20всв229599 0.4 101136
06:00+20всв2297100 1.5 101253
09:00+23ссв388799 1.6 1014484
12:00+28с576461 0.2 10131270
15:00+28с356654 0.8 10101256
18:00+26всв237826 0.2 1010114
21:00+22в228847 0.2 101249
3 марта, ср
ср300:00+21в1295100 2.6 101433
03:00+21всв2293100 2.7 101368
06:00+20св2795100 1.7 1014232
09:00+22ссв3892100 3.6 1016344
12:00+27с4669100 0.0 10141065
15:00+27с3470100 0.8 1012934
18:00+24ссв128997 6.6 101124
21:00+22в229299 8.9 101440